星链-31493 (STARLINK-31493 )

导读

STARLINK-31493是美国星链计划中的一颗卫星,于2024年3月25日发射升空。它隶属于SpaceX公司打造的星链卫星互联网星座,该星座旨在为全球提供高速低延迟的宽带互联网服务。作为星链组网的组成单元,这颗卫星进一步扩充了星座规模,助力全球网络覆盖能力的提升。

基本信息
目录编号:
59329
目录名称:
STARLINK-31493
国际标识:
2024-057K
轨道中心:
EARTH
卫星名称:
星链-31493
卫星全名:
星链-31493 (STARLINK-31493 )
卫星状态:
在轨 (已飞行900 天)
发射日期:
2024-03-25 UTC
国别 :
美国 (US)
星等 :
--
该卫星已列入 空间交会检测服务 Space Conjunction Data Service (SCDS) ,当前飞行风险评估等级: 高风险
轨道信息
数据来源 国际轨道数据 AOE轨道数据
星历时间 2026-09-11T14:39:21+0800
10小时前
查看轨道信息
2026-09-10T00:00:00+0800
2天前
查看轨道信息
半长轴 6861.184km 6861.186km
偏心率 0.0000785 0.0000897
轨道倾角 43.002° 43.000°
近地点辐角 276.985° 241.642°
升交点赤经 218.857° 227.955°
平近点角 83.091° 250.529°
近地点 482.508km 482.433km
远地点 483.586km 483.665km
周期 94.267分钟 94.267分钟
每日圈数 15.27581 15.275801
详细信息
固有亮度:
5
最大亮度:
0.3
卫星平台:
Starlink v2.0 mini
覆盖范围:
全球
运营商:
太空探索技术公司
运营商所在国:
美国
制造商(研发单位):
太空探索技术公司
制造商所在国:
美国
使用方式:
暂无
卫星简介
星链(Starlink)计划是由太空探索技术公司(SpaceX)提出的一个巨型低轨卫星互联网星座项目,计划在2019年至2024年间在太空搭建由约1.2万颗卫星组成的“星链”网络,其中1584颗将部署在地球上空550千米处的近地轨道,并从2020年开始工作。该卫星仍在工作。
2D轨道图
3D轨道图
轨道高度分析图
轨道倾角分析图
轨道综合分析图
查看轨道综合分析图
交会数据列表
事件ID 空间交会对象 最接近时刻(TCA) 交会距离 交会风险概率(CRP) 交会风险指数(CRI) 操作
CDM_260913-180405-932906-250921
2026-09-13T
18:04:49+0000
0.183 km
中距离
7.127008E-4 高风险 0.92
CDM_260913-095905-114205-932921
2026-09-13T
09:59:10+0000
0.905 km
远距离
2.128755E-5 中风险 0.62
CDM_260912-221905-932906-228921
2026-09-12T
22:19:39+0000
0.771 km
远距离
2.015897E-5 中风险 0.61
CDM_260913-150305-932906-453222
OBJECT E (64532)
2026-09-13T
15:03:58+0000
1.231 km
极远距离
1.282764E-5 中风险 0.57
CDM_260912-195805-932906-228921
2026-09-12T
19:58:25+0000
0.986 km
远距离
8.779568E-6 低风险 0.54
CDM_260913-043205-932906-396921
2026-09-13T
04:32:21+0000
0.849 km
远距离
8.549603E-6 低风险 0.54
CDM_260913-051905-932906-396921
2026-09-13T
05:19:25+0000
1.356 km
极远距离
1.814709E-6 低风险 0.4
与全量物体交会距离演化趋势
与全量物体交会风险概率演化趋势